Location: Unspecified
(42.9300°N, 71.1866°W)
Time: 06:22:29
(UTC-04:00)

Genesis I - Visible Passes

Search period start: 28 July 2015 00:00
Search period end: 07 August 2015 00:00
Orbit: 487 x 558 km, 64.5° (Epoch: 27 July)

Date Brightness Start Highest point End Pass type
(mag) Time Alt. Az. Time Alt. Az. Time Alt. Az.
04 Aug 3.6 04:54:49 10° SSW 04:58:52 71° ESE 05:03:01 10° NE visible
05 Aug 3.4 04:41:20 11° SSW 04:45:15 76° ESE 04:49:25 10° NE visible
06 Aug 3.3 04:28:29 16° SSW 04:31:39 82° ESE 04:35:49 10° NE visible
